FW5697 Weather Reports


time (UTC)temp
C
wind
direction
speed
KPH
gust
KPH
rain 1hr
cm
rain 24hr
cm
rain mn
cm
humidity
%
barometer
mb
20260505083029 9 0 0.0 1.6 0.00 0.00 0.00 88 1015.0
20260505081528 9 0 0.0 0.0 0.00 0.00 0.00 88 1015.2
20260505080030 10 0 0.0 3.2 0.00 0.00 0.00 87 1015.1
20260505074529 10 0 0.0 0.0 0.00 0.00 0.00 87 1014.7
20260505073039 10 0 0.0 0.0 0.00 0.00 0.00 86 1014.7
20260505071531 10 0 0.0 0.0 0.00 0.00 0.00 85 1014.7
20260505070038 10 0 0.0 0.0 0.00 0.00 0.00 85 1014.7
20260505064527 11 0 0.0 0.0 0.00 0.00 0.00 84 1014.7
20260505063027 11 0 0.0 0.0 0.00 0.00 0.00 82 1014.7
20260505061538 11 0 0.0 0.0 0.00 0.00 0.00 81 1014.8
20260505060030 11 0 0.0 0.0 0.00 0.00 0.00 79 1014.9
20260505054536 12 0 0.0 0.0 0.00 0.00 0.00 79 1015.1
20260505053032 12 0 0.0 0.0 0.00 0.00 0.00 76 1015.1
20260505051531 12 0 0.0 0.0 0.00 0.00 0.00 74 1015.1
20260505041541 13 0 0.0 1.6 0.00 0.00 0.00 74 1015.0
20260505040037 13 0 0.0 0.0 0.00 0.00 0.00 73 1015.1
20260505034532 14 0 0.0 0.0 0.00 0.00 0.00 71 1015.2
20260505033029 15 0 0.0 1.6 0.00 0.00 0.00 69 1015.2
20260505031537 16 0 0.0 3.2 0.00 0.00 0.00 59 1015.4
20260505030028 16 0 0.0 3.2 0.00 0.00 0.00 61 1015.3
20260505024528 15 0 0.0 1.6 0.00 0.00 0.00 67 1015.3
20260505023027 15 0 0.0 0.0 0.00 0.00 0.00 74 1015.3
20260505021528 15 0 0.0 0.0 0.00 0.00 0.00 73 1015.2
20260505020027 16 0 0.0 0.0 0.00 0.00 0.00 71 1015.2
20260505014534 16 0 0.0 0.0 0.00 0.00 0.00 71 1015.1
20260505013030 17 0 0.0 0.0 0.00 0.00 0.00 69 1014.9
20260505011530 17 0 0.0 0.0 0.00 0.00 0.00 66 1014.8
20260505010031 18 0 0.0 0.0 0.00 0.00 0.00 64 1014.6
20260505004533 19 0 0.0 0.0 0.00 0.00 0.00 61 1014.3
20260505003027 20 0 0.0 0.0 0.00 0.00 0.00 58 1014.3
20260505001529 21 0 0.0 0.0 0.00 0.00 0.00 56 1014.1
20260505000045 21 0 0.0 0.0 0.00 0.00 0.00 53 1014.1
20260504234533 22 0 0.0 0.0 0.00 0.00 0.00 46 1014.2
20260504233028 23 0 0.0 1.6 0.00 0.00 0.00 43 1014.1
20260504231531 23 182 0.0 3.2 0.00 0.00 0.00 41 1014.2
20260504230027 24 213 1.6 4.8 0.00 0.00 0.00 37 1014.1
20260504224528 25 228 3.2 8.0 0.00 0.00 0.00 35 1014.2
20260504223042 25 201 1.6 4.8 0.00 0.00 0.00 35 1014.1
20260504221531 24 0 1.6 4.8 0.00 0.00 0.00 37 1014.1
20260504220028 25 200 1.6 4.8 0.00 0.00 0.00 35 1014.0
20260504214531 25 238 3.2 11.3 0.00 0.00 0.00 33 1014.0
20260504213045 25 153 1.6 4.8 0.00 0.00 0.00 40 1014.0
20260504211534 25 0 0.0 4.8 0.00 0.00 0.00 36 1013.9
20260504210030 26 186 3.2 8.0 0.00 0.00 0.00 33 1014.1
20260504204541 25 96 0.0 6.4 0.00 0.00 0.00 37 1014.2
20260504203029 25 171 1.6 9.7 0.00 0.00 0.00 33 1014.4
20260504201529 26 189 1.6 8.0 0.00 0.00 0.00 34 1014.5
20260504200028 26 232 1.6 6.4 0.00 0.00 0.00 33 1014.7
20260504194530 26 215 1.6 8.0 0.00 0.00 0.00 35 1014.9
20260504193030 25 140 1.6 6.4 0.00 0.00 0.00 34 1015.0
20260504191529 25 151 1.6 9.7 0.00 0.00 0.00 34 1015.2
20260504190028 25 84 1.6 9.7 0.00 0.00 0.00 33 1015.5
20260504184531 25 218 1.6 6.4 0.00 0.00 0.00 36 1015.7
20260504183027 23 0 1.6 6.4 0.00 0.00 0.00 35 1015.9
20260504181531 23 0 3.2 6.4 0.00 0.00 0.00 34 1016.1
20260504180028 23 213 0.0 3.2 0.00 0.00 0.00 37 1016.2
20260504174528 23 190 1.6 9.7 0.00 0.00 0.00 37 1016.4
20260504173030 22 0 0.0 6.4 0.00 0.00 0.00 39 1016.5
20260504171530 22 31 1.6 9.7 0.00 0.00 0.00 39 1016.7